OBJECT G, 62615

Orbit data source: Space-Track

You're viewing an Uncataloged Satellite

Recently launched and/or uncataloged satellites may have evolving metadata. Metadata may include but not limited to: Owner, Maufacturer, Bus, Motor, and Mission.

OBJECT G, 62615 is a satellite in SSO that was launched on Tue, 14 Jan 2025 UTC via an FALCON 9 launch vehicle from the Air Force Western Test Range (AFWTR). Unknown objects in Earth's orbit typically refer to objects detected orbiting the Earth but have not yet been identified or cataloged. These objects could be anything from previously untracked satellites, spent rocket stages, debris from satellite collisions, or even natural meteoroids temporarily captured by Earth's gravity.

Loading next visibility...
Identifier
62615, 2025-009G
Orbit
SSO
Country
Flag of TBDTBD
Related business
None
Manufacturer
Unknown
Mission
Operational Commercial Weather
Bus & Motor
Unknown
Mass
Unknown
Launch date (UTC)
2025-01-14 (9 months ago)
Launch vehicle
FALCON 9
Launch site
Air Force Western Test Range (AFWTR)
Object type
Unknown
Shape & HBR
Box, 0.4 m
Radar Cross Section
0.015 m², Medium (>0.1 m² and < 1m²)

Expand to show TLE details & history
Last TLE update: 7 hours ago

TLE from 7 hours ago
0 OBJECT G
1 62615U 25009G   25298.21116493  .00010723  00000-0  47852-3 0  9991
2 62615  97.4171  16.1455 0008017  79.7751 280.4389 15.21530800 43012
Epoch: 2025-10-25T05:04Z
TLE epoch observation values (Epoch: 2025-10-25T05:04:04.649Z)
Latitude
-0.00002°
Longitude
-93.71884°
Altitude
503.319 km
Speed
7.613 km/s
True Right ascension
01h 04m 34s
True Declination
0° 00' 00"
Sunlit
Object was in full shadow at epoch
Visualization orbit readout
Latitude
Unknown
Longitude
Unknown
Altitude
Unknown
Speed
Unknown
Apparent Right ascension
Unknown
Apparent Declination
Unknown
Sunlit
N/A
Visualization observer readout
Local Sidereal Time
07:39:46
Azimuth
Unknown
Elevation
Unknown
Doppler factor
Unknown
Orbital elements
Apogee altitude
503.7 km
Perigee altitude
492.674 km
Semi-major axis
6,876.324 km
Eccentricity
0.0008
Inclination
97.4171°
RAAN
16.1455°
Arg. of periapsis
79.7751°
True anomaly
280.34854°
Mean anomaly
280.4389°
Eccentric anomaly
280.39372°
Mean motion
3.80635 °/min
Orbital period
94.58 mins
BSTAR
0.00047852
Loading maneuver chart data...
Computing Atmospheric mass density...
Loading historical data...
Loading historical data...
Loading historical data...
Loading historical data...
Loading historical data...
Loading historical data...
Loading historical data...

Documentation

Showing up to 5 results
|